Total_Precipitation_Accumulation
0.83 0.74 0.68 0.59 0.57 0.56 0.62 0.80 1.24 1.70 2.21 2.71 2.87 2.97 3.20 3.36 3.30 3.04 2.65 2.43 2.41 2.37 2.38 2.29 2.12 2.05 1.96 1.83 1.67 1.66 1.63 1.67 1.74 1.82 1.84 1.76 1.80 1.78 1.75 1.74 1.61 1.56 1.49 1.44
0.84 0.67 0.73 0.74 0.77 0.78 0.76 0.85 1.18 1.68 2.43 2.73 2.88 3.13 3.21 3.21 3.31 3.27 2.86 2.59 2.48 2.38 2.31 2.35 2.22 2.09 1.95 1.88 1.82 1.77 1.73 1.70 1.67 1.68 1.63 1.60 1.60 1.64 1.57 1.55 1.56 1.52 1.41 1.32
1.27 0.78 1.03 1.43 1.25 1.10 1.09 1.15 1.39 1.85 2.27 2.40 2.58 2.81 3.09 3.29 3.33 3.45 3.14 2.78 2.57 2.50 2.38 2.35 2.41 2.42 2.28 2.06 1.93 1.71 1.64 1.61 1.53 1.47 1.43 1.46 1.43 1.44 1.49 1.56 1.55 1.46 1.35 1.32
1.37 1.50 2.04 1.70 1.17 1.08 1.23 1.35 1.36 1.60 1.72 2.00 2.27 2.47 2.79 3.05 3.37 3.54 3.28 2.98 2.72 2.56 2.47 2.42 2.43 2.42 2.25 2.07 1.84 1.66 1.62 1.54 1.42 1.32 1.29 1.40 1.36 1.37 1.44 1.45 1.43 1.43 1.41 1.45
1.67 2.05 2.12 1.75 1.19 1.08 1.44 1.78 1.41 1.45 1.53 1.61 1.75 2.06 2.65 2.68 2.82 3.15 3.18 3.01 2.82 2.60 2.50 2.45 2.30 2.21 2.15 1.91 1.80 1.73 1.58 1.48 1.33 1.25 1.28 1.31 1.25 1.28 1.37 1.36 1.33 1.36 1.38 1.44
1.80 2.31 2.57 2.09 1.11 0.83 1.28 2.31 1.68 1.48 1.59 1.63 1.87 2.31 2.41 2.16 2.22 2.42 2.62 2.69 2.62 2.44 2.33 2.34 2.19 2.07 2.09 1.96 1.79 1.73 1.61 1.51 1.37 1.34 1.34 1.34 1.35 1.32 1.29 1.28 1.25 1.24 1.28 1.38
1.91 2.29 2.33 1.36 0.89 1.07 2.19 2.62 1.80 1.49 1.63 1.88 2.24 2.23 1.86 1.65 1.79 1.96 2.06 2.21 2.27 2.27 2.26 2.17 1.98 1.95 2.11 2.22 2.05 1.74 1.61 1.56 1.56 1.55 1.48 1.43 1.45 1.42 1.36 1.26 1.25 1.28 1.28 1.33
2.01 2.51 2.51 1.18 1.00 1.68 2.04 1.59 1.45 1.47 1.53 1.58 1.62 1.49 1.39 1.43 1.60 1.63 1.74 1.87 2.02 2.19 2.16 2.11 2.00 1.95 1.93 1.99 1.98 1.81 1.70 1.67 1.63 1.54 1.47 1.46 1.54 1.47 1.43 1.47 1.42 1.41 1.36 1.36
2.01 2.40 1.92 1.21 1.13 1.19 1.22 1.35 1.36 1.44 1.43 1.34 1.31 1.32 1.27 1.36 1.54 1.64 1.68 1.78 1.86 1.97 2.01 2.00 1.90 1.92 1.92 1.87 1.71 1.68 1.79 1.74 1.66 1.57 1.51 1.53 1.57 1.47 1.38 1.48 1.44 1.34 1.25 1.27
1.54 1.64 1.49 1.35 1.17 1.10 1.14 1.18 1.24 1.34 1.35 1.29 1.29 1.22 1.21 1.35 1.50 1.59 1.58 1.62 1.72 1.84 1.92 1.89 1.75 1.72 1.73 1.65 1.65 1.70 1.70 1.66 1.66 1.63 1.51 1.43 1.41 1.35 1.31 1.33 1.39 1.37 1.27 1.21
1.61 1.60 1.52 1.54 1.40 1.29 1.32 1.30 1.23 1.31 1.38 1.34 1.29 1.32 1.25 1.35 1.37 1.41 1.47 1.51 1.59 1.78 1.86 1.77 1.62 1.51 1.46 1.55 1.66 1.75 1.65 1.50 1.47 1.43 1.36 1.33 1.27 1.20 1.16 1.10 1.11 1.18 1.13 1.01
1.74 1.61 1.59 1.56 1.42 1.34 1.56 1.67 1.50 1.42 1.39 1.33 1.29 1.33 1.21 1.18 1.17 1.19 1.25 1.35 1.51 1.61 1.65 1.59 1.50 1.45 1.38 1.44 1.56 1.62 1.55 1.47 1.42 1.31 1.24 1.14 1.11 1.11 1.14 1.04 0.97 0.94 0.98 0.89
1.27 1.23 1.31 1.29 1.27 1.37 1.61 1.64 1.53 1.33 1.21 1.23 1.17 1.20 1.19 1.11 1.08 1.07 1.10 1.17 1.28 1.31 1.37 1.39 1.33 1.35 1.30 1.30 1.37 1.45 1.47 1.46 1.37 1.31 1.25 1.18 1.11 1.09 1.15 1.09 1.00 0.96 0.93 0.87
1.15 1.14 1.34 1.33 1.30 1.26 1.39 1.48 1.41 1.19 1.10 1.16 1.15 1.10 1.13 1.06 1.01 1.02 1.10 1.07 1.07 1.10 1.14 1.15 1.17 1.21 1.22 1.22 1.26 1.27 1.25 1.30 1.31 1.24 1.19 1.21 1.23 1.19 1.16 1.22 1.18 1.03 0.90 0.83
1.18 1.08 1.18 1.15 1.06 1.01 1.05 1.20 1.31 1.20 1.09 1.08 1.05 1.03 1.04 1.04 1.01 0.95 1.02 0.98 0.97 1.05 1.09 1.01 1.02 1.08 1.10 1.07 1.10 1.16 1.18 1.19 1.19 1.22 1.18 1.14 1.18 1.20 1.17 1.20 1.24 1.18 1.03 0.90
1.08 0.94 0.93 0.96 0.93 0.92 0.93 0.99 1.11 1.07 0.97 0.90 0.84 0.84 0.89 0.94 0.96 0.90 0.91 0.92 1.02 1.09 1.09 1.00 0.97 0.93 0.93 0.98 0.96 0.94 0.96 1.03 1.09 1.12 1.14 1.13 1.11 1.13 1.17 1.22 1.25 1.22 1.10 1.01
1.13 1.06 1.03 1.00 0.94 0.90 0.89 0.94 0.97 0.91 0.87 0.85 0.82 0.77 0.79 0.89 1.01 0.99 0.93 0.94 1.03 1.09 1.01 0.93 0.86 0.75 0.76 0.82 0.83 0.82 0.80 0.80 0.82 0.82 0.87 0.89 0.92 0.96 0.99 1.09 1.15 1.11 1.01 1.00
0.98 0.95 0.94 0.99 0.95 0.87 0.81 0.83 0.86 0.81 0.81 0.75 0.70 0.72 0.78 0.91 0.97 0.96 0.92 0.92 0.95 1.02 1.00 0.91 0.80 0.74 0.70 0.71 0.74 0.75 0.71 0.65 0.61 0.61 0.67 0.75 0.77 0.78 0.83 0.87 0.93 0.94 0.89 0.88
0.81 0.73 0.69 0.77 0.82 0.80 0.78 0.78 0.79 0.74 0.70 0.68 0.71 0.74 0.75 0.86 0.85 0.77 0.81 0.91 1.00 1.06 1.01 0.86 0.82 0.77 0.78 0.81 0.79 0.71 0.65 0.61 0.56 0.55 0.59 0.71 0.77 0.78 0.82 0.82 0.83 0.85 0.83 0.80
0.74 0.63 0.62 0.67 0.72 0.75 0.78 0.78 0.75 0.75 0.71 0.70 0.75 0.74 0.72 0.78 0.82 0.78 0.83 0.92 0.94 0.92 0.90 0.85 0.72 0.69 0.72 0.77 0.76 0.66 0.62 0.61 0.60 0.57 0.61 0.70 0.73 0.71 0.70 0.71 0.74 0.80 0.75 0.71
0.72 0.63 0.63 0.66 0.71 0.73 0.75 0.79 0.73 0.73 0.79 0.82 0.87 0.85 0.77 0.76 0.78 0.81 0.90 0.95 0.87 0.80 0.78 0.79 0.72 0.72 0.73 0.73 0.66 0.57 0.57 0.61 0.64 0.61 0.63 0.68 0.72 0.70 0.70 0.70 0.74 0.81 0.77 0.72
0.64 0.64 0.64 0.62 0.67 0.74 0.76 0.81 0.77 0.75 0.83 0.87 0.88 0.85 0.78 0.80 0.79 0.79 0.84 0.93 0.87 0.80 0.72 0.70 0.73 0.74 0.76 0.76 0.64 0.58 0.57 0.62 0.68 0.71 0.74 0.75 0.76 0.77 0.77 0.75 0.76 0.77 0.77 0.81
0.63 0.64 0.67 0.69 0.69 0.73 0.77 0.81 0.83 0.80 0.85 0.86 0.81 0.83 0.79 0.78 0.78 0.78 0.83 0.80 0.76 0.79 0.72 0.68 0.71 0.72 0.69 0.68 0.68 0.65 0.61 0.61 0.68 0.77 0.81 0.77 0.74 0.78 0.79 0.76 0.76 0.76 0.78 0.79
0.66 0.67 0.69 0.71 0.72 0.76 0.86 0.89 0.85 0.79 0.73 0.71 0.72 0.76 0.76 0.75 0.72 0.66 0.70 0.72 0.72 0.76 0.71 0.68 0.65 0.59 0.57 0.56 0.63 0.68 0.71 0.69 0.69 0.74 0.80 0.81 0.78 0.73 0.75 0.78 0.79 0.80 0.82 0.76
0.70 0.71 0.76 0.79 0.87 0.91 0.91 0.86 0.76 0.69 0.66 0.66 0.64 0.66 0.69 0.71 0.70 0.62 0.62 0.63 0.64 0.64 0.60 0.59 0.59 0.58 0.54 0.50 0.54 0.62 0.70 0.75 0.72 0.71 0.75 0.80 0.82 0.76 0.74 0.78 0.82 0.81 0.79 0.78
0.86 0.81 0.78 0.79 0.85 0.89 0.86 0.81 0.76 0.73 0.68 0.70 0.72 0.70 0.72 0.72 0.67 0.64 0.62 0.61 0.61 0.58 0.53 0.56 0.57 0.58 0.55 0.54 0.55 0.60 0.68 0.73 0.71 0.72 0.75 0.79 0.82 0.83 0.81 0.81 0.83 0.82 0.78 0.76
0.94 0.92 0.88 0.81 0.78 0.81 0.85 0.88 0.87 0.80 0.73 0.69 0.71 0.71 0.73 0.72 0.70 0.69 0.64 0.63 0.62 0.59 0.55 0.54 0.53 0.53 0.53 0.54 0.56 0.60 0.66 0.68 0.68 0.75 0.78 0.79 0.84 0.88 0.91 0.88 0.89 0.91 0.87 0.81